Location: Wapato
(46.4478°N, 120.4212°W)
Time: 23:00:31
(UTC+00:00)

Vanguard 1 Rocket - Pass Details

Date: 14 May 2026
Orbit: 656 x 4211 km, 34.3° (Epoch: 2 June)

Event Time Altitude Azimuth Distance (km) Brightness Sun altitude
Rises 02:36:45 0° 264° (W) 5,408 12.7 7.0°
Reaches altitude 10° 02:39:45 10° 259° (W) 4,779 12.3 6.5°
Maximum altitude 02:54:04 53° 188° (S) 3,803 10.5 4.2°
Drops below altitude 10° 03:17:26 10° 121° (ESE) 7,390 11.4 0.6°
Enters shadow 03:23:20 - 118° (ESE) 8,391 11.6 -0.3°
Sets 03:23:37 0° 118° (ESE) 8,437 - -0.4°
